Regional Weather Roundup
Issued by NWS

Current Version | Previous Version | Text Only | Print | Product List | Glossary On
Versions: 1 2 3 4 5 6 7 8 9 10 11 12 13 14 15 16 17 18 19 20 21 22 23 24 25 26 27 28 29 30 31 32 33 34 35 36 37 38 39 40 41 42 43 44 45 46 47 48 49 50
000
ASUS45 KABQ 251701
RWRNM
NEW MEXICO REGIONAL WEATHER ROUNDUP
NATIONAL WEATHER SERVICE ALBUQUERQUE NM
1100 AM MDT SUN OCT 25 2020

NOTE: "FAIR" MEANS FEW OR NO CLOUDS BELOW 12,000 FEET AGL WITH NO
       SIGNIFICANT WEATHER OR OBSTRUCTIONS TO VISION.

      THIS PRODUCT IS RELEASED AS TWO VERSIONS.  ONE VERSION NEAR
      THE TOP OF THE HOUR CONTAINING PRELIMINARY DATA FROM ALBUQUERQUE
      AND OTHER STATIONS.  A FINAL VERSION WITH ADDITIONAL DATA IS
      ISSUED ABOUT 10 MINUTES AFTER THE HOUR.

NMZ201-203-204-210>218-251800-
NORTHWEST PLATEAU/NORTHCENTRAL MOUNTAINS

CITY           SKY/WX    TMP DP  RH WIND       PRES   REMARKS
FARMINGTON     FAIR      65  26  23 SW22G30   29.81F
SANTA FE       FAIR      61  23  23 SW7       29.95F
TAOS           CLOUDY    58  22  24 SW22      29.95F

$$
NMZ202-205>209-241-402-403-251800-
WESTCENTRAL MOUNTAINS/SOUTHWEST MOUNTAINS

CITY           SKY/WX    TMP DP  RH WIND       PRES   REMARKS
GALLUP         FAIR      58  30  34 SW24G32   29.94F
GRANTS         FAIR      65  25  22 W17G28    29.97F
SILVER CITY    PTSUNNY   68  32  26 SW14G20   30.02F

$$
NMZ407-409-411-412-251800-
SOUTHERN DESERTS

CITY           SKY/WX    TMP DP  RH WIND       PRES   REMARKS
DEMING         FAIR      73  40  30 SW13      29.97F
LAS CRUCES     FAIR      71  34  25 S5        29.99F
HOLLOMAN AFB   FAIR      75  38  27 SE12      29.94F
ALAMOGORDO     FAIR      75  36  23 S8        29.97F
T OR C         FAIR      70  35  27 S16       29.93F

$$
NMZ219>223-251800-
CENTRAL VALLEYS/CENTRAL HIGHLANDS

CITY           SKY/WX    TMP DP  RH WIND       PRES   REMARKS
ALBUQUERQUE    PTSUNNY   65  28  24 S14       29.92F
DOUBLE EAGLE   SUNNY     63  27  25 S9        29.94F
CLINES CORNERS FAIR      59  23  25 SW18      30.00F
BELEN          NOT AVBL
SOCORRO        FAIR      66  28  23 S16       29.91F

$$
NMZ224>226-239-240-251800-
SOUTHCENTRAL MOUNTAINS

CITY           SKY/WX    TMP DP  RH WIND       PRES   REMARKS
RUIDOSO        FAIR      68  19  15 NW9G16    30.05R

$$
NMZ227>231-251800-
NORTHEAST HIGHLANDS/NORTHEAST PLAINS

CITY           SKY/WX    TMP DP  RH WIND       PRES   REMARKS
LAS VEGAS      FAIR      52  27  38 S13       29.97R
RATON          FAIR      45  24  43 VRB7      29.95F
CLAYTON        CLOUDY    30  26  85 N18       30.05S WCI  18

$$
NMZ232>237-251800-
EASTCENTRAL PLAINS

CITY           SKY/WX    TMP DP  RH WIND       PRES   REMARKS
SANTA ROSA     FAIR      37  30  77 NE15G21   29.98S WCI  27
TUCUMCARI      CLOUDY    37  30  75 E14       30.03F WCI  28
CANNON AFB     PTSUNNY   39  31  72 NE21      30.02S WCI  29
CLOVIS AIRPORT CLOUDY    38  31  76 NE21G26   30.03S WCI  28

$$
NMZ028-029-033-238-251800-
SOUTHEAST PLAINS

CITY           SKY/WX    TMP DP  RH WIND       PRES   REMARKS
ROSWELL        FAIR      76  34  21 CALM      29.86F
ARTESIA        FAIR      81  37  21 SW29G41   29.87F
CARLSBAD       FAIR      83  38  20 SW30G39   29.84F HAZE
HOBBS          SUNNY     79  36  21 SW12      29.90F


$$




USA.gov is the U.S. government's official web portal to all federal, state and local government web resources and services.